This is the latest recevied weather packets stored in our database for station/object WA6OOO. If no packets are shown the sender has not sent any weather packets the latest 10 day(s).
| Time | Temp. | Humidity | Pressure | Rain* | Wind** | Luminosity | Snow |
|---|---|---|---|---|---|---|---|
| 1777586717 | 19.44° C | 66% | 1014.3 hPa | 0 mm | - | 661 W/m² | - |
| 1777586414 | 18.89° C | 67% | 1014.5 hPa | 0 mm | - | 671 W/m² | - |
| 1777586113 | 18.89° C | 68% | 1014.3 hPa | 0 mm | - | 680 W/m² | - |
| 1777585812 | 18.89° C | 67% | 1014.5 hPa | 0 mm | - | 692 W/m² | - |
| 1777585511 | 19.44° C | 66% | 1014.6 hPa | 0 mm | - | 698 W/m² | - |
| 1777585207 | 18.89° C | 66% | 1014.7 hPa | 0 mm | - | 708 W/m² | - |
| 1777584903 | 19.44° C | 67% | 1014.7 hPa | 0 mm | - | 714 W/m² | - |
| 1777584600 | 18.89° C | 68% | 1014.6 hPa | 0 mm | - | 722 W/m² | - |
| 1777584297 | 19.44° C | 65% | 1014.8 hPa | 0 mm | - | 729 W/m² | - |
| 1777583992 | 19.44° C | 66% | 1015 hPa | 0 mm | - | 734 W/m² | - |
| 1777583693 | 19.44° C | 65% | 1014.7 hPa | 0 mm | - | 742 W/m² | - |
| 1777583393 | 19.44° C | 66% | 1014.6 hPa | 0 mm | - | 746 W/m² | - |
| 1777583091 | 19.44° C | 66% | 1014.7 hPa | 0 mm | - | 755 W/m² | - |
| 1777582788 | 20° C | 64% | 1014.9 hPa | 0 mm | - | 760 W/m² | - |
| 1777582484 | 19.44° C | 65% | 1014.9 hPa | 0 mm | - | 766 W/m² | - |
| 1777582179 | 19.44° C | 64% | 1014.7 hPa | 0 mm | - | 769 W/m² | - |
| 1777581878 | 19.44° C | 65% | 1014.7 hPa | 0 mm | - | 773 W/m² | - |
| 1777581572 | 20° C | 65% | 1014.7 hPa | 0 mm | - | 775 W/m² | - |
| 1777581268 | 19.44° C | 66% | 1014.7 hPa | 0 mm | - | 779 W/m² | - |
| 1777580963 | 18.89° C | 69% | 1014.9 hPa | 0 mm | - | 781 W/m² | - |
| 1777580657 | 18.89° C | 69% | 1014.8 hPa | 0 mm | - | 782 W/m² | - |
| 1777580353 | 19.44° C | 67% | 1014.9 hPa | 0 mm | - | 785 W/m² | - |
| 1777580049 | 19.44° C | 69% | 1014.8 hPa | 0 mm | - | 784 W/m² | - |
| 1777579746 | 19.44° C | 68% | 1015 hPa | 0 mm | - | 784 W/m² | - |
| 1777579444 | 19.44° C | 68% | 1014.9 hPa | 0 mm | - | 786 W/m² | - |
* Rain latest hour (hover to see other rain measurements)
** Current wind speed in m/s (hover to see current wind gust speed)